Location: Madrid
(40.4000°N, 3.6830°W)
Time: 15:40:55

ISS - Pass Details

Date: 14 March 2018
Orbit: 403 x 406 km, 51.6° (Epoch: 17 March)

Event Time Altitude Azimuth Distance (km) Brightness Sun altitude
Exits shadow 06:52:45 - 313° (NW) 2,097 -0.6 -7.6°
Reaches altitude 10° 06:54:23 10° 322° (NW) 1,464 -1.3 -7.3°
Maximum altitude 06:57:25 33° 28° (NNE) 701 -2.3 -6.7°
Drops below altitude 10° 07:00:25 10° 95° (E) 1,457 0.8 -6.1°
Sets 07:02:37 0° 106° (ESE) 2,313 1.8 -5.7°
